    Orbital elements:
    2018 WH2                                                 Earth MOID = 0.0886 AU
    Epoch 2019 Apr. 27.0 TT = JDT 2458600.5                 MPC
    M  68.78644              (2000.0)            P               Q
    n   0.39609089     Peri.  150.86581     +0.74691094     -0.61308753
    a   1.8362824      Node   249.27228     +0.54424751     +0.78607483
    e   0.4309400      Incl.   15.97388     +0.38199306     +0.07880384
    P   2.49           H   23.0           G   0.15           U   7
    Residuals in seconds of arc
    181129 G96  0.1-  0.1+    181129 L01  0.2-  0.2-    181130 K88  0.4-  0.3+
    181129 G96  0.3-  0.2+    181129 L01  0.3-  0.2-    181130 K88  0.6+  0.1+
    181129 G96  0.1+  0.5-    181129 L01  0.1-  0.2-    181130 Z99  0.7+  0.4-
    181129 G96  0.0   0.0     181129 Z99  0.4-  0.7-    181130 J69  0.1-  0.0
    181129 I52  0.3-  0.0     181129 Z99  0.1-  0.1-    181130 Z99  0.1-  0.0
    181129 I52  0.0   0.1+    181129 Z99  0.3+  0.1+    181130 J69  0.3-  0.1-
    181129 I52  0.1+  0.1+    181129 K38  0.3+  0.3+    181130 Z99  0.0   0.2+
    181129 I52  0.2+  0.2+    181129 K38  0.1+  0.4-    181130 J69  0.3-  0.4-
    181129 T05  0.1+  0.2+    181129 585  0.0   0.5+    181130 J69  0.2+  0.6-
    181129 T05  0.2-  0.1-    181129 585  0.1+  0.2+    181130 J69  0.6+  0.6-
    181129 T05  0.3-  0.1-    181129 585  0.1+  0.3+    181130 Z80  0.4-  0.1-
    181129 T05  0.1-  0.5+    181129 585  0.2+  0.3+    181130 Z80  0.2-  0.5+
    181129 P93  0.3-  0.0     181129 585  0.1+  0.2+    181130 Z80  0.3-  0.0
    181129 P93  0.2+  0.2-    181130 G40  0.6+  0.5+    181130 Z80  0.2-  0.2+
    181129 P93  0.2-  0.4-    181130 G40  0.5-  0.4+    181130 Z80  0.0   0.0
    181129 P93  0.7+  0.4-    181130 G40  0.3-  0.6+    181201 C95  0.0   0.4-
    181129 P93  0.3+  0.3-    181130 G40  0.2+  0.4+    181201 C95  0.2+  0.1-
    181129 L04  0.0   0.0     181130 P93  0.1+  0.5+    181201 C95  0.5-  0.3+
    181129 L04  0.1+  0.1-    181130 P93  0.8+  0.4+    181201 C95  0.1+  0.4+
    181129 L04  0.1-  0.0     181130 P93  0.7+  0.3+    181201 C95  0.1-  0.2-
    181129 104  0.2+  0.1-    181130 Z99  0.3+  0.5-    181201 C95  0.1-  0.1-
    181129 104  0.1+  0.3-    181130 Z99  0.0   0.2-    181201 C95  0.0   0.0
    181129 104  0.1-  0.3-    181130 Z99  0.4+  0.3-    181201 C95  0.1-  0.2+
    181129 L01  0.0   0.6-    181130 K88  1.6-  0.4+
    
    Ephemeris:
    2018 WH2                 a,e,i = 1.84, 0.43, 16                  q = 1.0450
    Date    TT    R. A. (2000) Decl.     Delta      r     Elong.  Phase     V
    2018 11 01    20 40 11.5 +66 48 29   0.1619  1.0456   104.7    66.7    21.5
    ...
    2018 11 16    01 35 12.6 +69 18 02   0.1017  1.0528   126.6    48.9    20.0
    ...
    2018 11 24    03 57 18.4 +47 32 35   0.08876 1.0671   152.9    24.9    19.0
    ...
    2018 11 30    04 39 10.9 +26 45 41   0.09648 1.0822   173.6     5.9    18.6
    2018 12 01    04 43 41.5 +23 39 46   0.09921 1.0851   175.7     3.9    18.5
    2018 12 02    04 47 44.2 +20 43 54   0.1023  1.0880   176.0     3.6    18.6
    ...
    2018 12 08    05 05 04.4 +06 49 00   0.1269  1.1077   164.1    14.1    19.5
    ...
    2018 12 16    05 17 56.7 -03 47 14   0.1707  1.1386   152.7    23.4    20.5
    ...
    2018 12 31    05 31 14.1 -11 08 43   0.2709  1.2082   141.9    30.1    21.9
    
    A. U. Tomatic                (C) Copyright 2018 MPC           M.P.E.C. 2018-X06
    

    Read MPEC 2018-X05 Read MPEC 2018-X07


    MPEC number:

    Enter an MPEC number in one of the following forms:

    • 1997-B01 (the full form)
    • J97B01 (the packed version of the full form)
    • B01 (the abbreviated form)